HISPASAT 30W-6

Last updated on Sat Apr 13 2024 01:02:39 GMT+0100 (British Summer Time)

1 43228U 18023A 24103.37165378 -.00000225 00000+0 00000+0 0 9991 2 43228 0.0555 50.4942 0005778 337.0796 277.2505 1.00271046 22432
UTC large
Height (km)
Speed (km/s)
/
Latitude / Longitude
Inclination (degrees)
Orbital Period (minutes)
Azimuth
Elevation
Range (km)
Doppler Factor

Next 0 passes for location: London (51.5072 / 0.1276)

Sorry there are no passes over London.